This is the latest recevied weather packets stored in our database for station/object W7TRD. If no packets are shown the sender has not sent any weather packets the latest 10 day(s).
| Time | Temp. | Humidity | Pressure | Rain* | Wind** | Luminosity | Snow |
|---|---|---|---|---|---|---|---|
| 1788187080 | 11.67° C | 92% | 1013 hPa | 0 mm | - | 41 W/m² | - |
| 1788186775 | 11.67° C | 92% | 1012.9 hPa | 0 mm | - | 38 W/m² | - |
| 1788186470 | 11.11° C | 92% | 1013 hPa | 0 mm | - | 34 W/m² | - |
| 1788186166 | 11.11° C | 92% | 1013 hPa | 0 mm | - | 31 W/m² | - |
| 1788185865 | 11.11° C | 92% | 1012.8 hPa | 0 mm | - | 29 W/m² | - |
| 1788185566 | 11.11° C | 94% | 1012.9 hPa | 0 mm | - | 29 W/m² | - |
| 1788185261 | 10.56° C | 95% | 1013.1 hPa | 0 mm | - | 23 W/m² | - |
| 1788184961 | 10.56° C | 95% | 1013.2 hPa | 0 mm | - | 19 W/m² | - |
| 1788184658 | 10.56° C | 95% | 1013 hPa | 0 mm | - | 16 W/m² | - |
| 1788184354 | 10° C | 95% | 1012.8 hPa | 0 mm | - | 12 W/m² | - |
| 1788184049 | 10° C | 95% | 1013 hPa | 0 mm | - | 10 W/m² | - |
| 1788183746 | 10.56° C | 95% | 1012.9 hPa | 0 mm | - | 7 W/m² | - |
| 1788183445 | 10° C | 95% | 1013 hPa | 0 mm | - | 5 W/m² | - |
| 1788183139 | 10.56° C | 95% | 1013.1 hPa | 0 mm | - | 3 W/m² | - |
| 1788182835 | 10.56° C | 94% | 1013.1 hPa | 0 mm | - | 2 W/m² | - |
| 1788182535 | 10.56° C | 95% | 1013.1 hPa | 0 mm | - | 1 W/m² | - |
| 1788182235 | 10.56° C | 94% | 1013.2 hPa | 0 mm | - | 0 W/m² | - |
| 1788181932 | 10.56° C | 94% | 1013.3 hPa | 0 mm | - | 0 W/m² | - |
| 1788181626 | 10.56° C | 94% | 1013 hPa | 0 mm | - | 0 W/m² | - |
| 1788181322 | 11.11° C | 94% | 1013.1 hPa | 0 mm | - | 0 W/m² | - |
| 1788181020 | 11.11° C | 94% | 1013.1 hPa | 0 mm | - | 0 W/m² | - |
| 1788180716 | 11.11° C | 94% | 1013.3 hPa | 0 mm | - | 0 W/m² | - |
| 1788180411 | 11.11° C | 94% | 1013.3 hPa | 0 mm | - | 0 W/m² | - |
| 1788180108 | 11.11° C | 94% | 1013.4 hPa | 0 mm | - | 0 W/m² | - |
| 1788179807 | 11.11° C | 95% | 1013.4 hPa | 0 mm | - | 0 W/m² | - |
* Rain latest hour (hover to see other rain measurements)
** Current wind speed in m/s (hover to see current wind gust speed)